Portada
METAR-TAF:

METAR-TAF

Aeropuertos :

Clayton Lake, Maine, Estados Unidos

latitud: 46-37N, longitud: 069-32W, altitud: 314 m

Observación

El informe se hizo hace 1 hora y 4 minutos, a las 03:16 UTC
Viento 4 kt con dirección variable
Temperatura 2°C
Humedad 75%
Presión 999 hPa

METAR: K40B 210316Z AUTO VRB04KT 02/M02 A2950 RMK AO1 SLP999 T00191020 52013

Hora: 00:20 (04:20 UTC)


TAF: falta

Observaciones y pronósticos meteorológicos de más de 4000 aeropuertos (mensajes METAR y TAF).

Los puntos amarillos y rojos representan las estaciones disponibles.

Ponga el ratón en el punto deseado para ver el nombre de la estación.

Haga clic para ver las observaciones y los pronósticos meteorológicos.

Para cambiar el mapa : haga clic en los botones verdes con una cruz de color negro para hacer un zoom, en el botón verde con un guión para alejar o en las flechas verdes para mapas adyacentes.


METAR-TAF: